Regional Weather Roundup
Issued by NWS Boston, MA

Current Version | Previous Version | Text Only | Print | Product List | Glossary Off
Versions: 1 2 3 4 5 6 7 8 9 10 11 12 13 14 15 16 17 18 19 20 21 22 23 24 25 26 27

000
ASUS41 KBOX 240610
RWRBOX

REGIONAL WEATHER ROUNDUP
NATIONAL WEATHER SERVICE TAUNTON MA
200 AM EDT SUN SEP 24 2017

NOTE:  "FAIR" INDICATES FEW OR NO CLOUDS BELOW 12,000 FEET WITH NO
SIGNIFICANT WEATHER AND/OR OBSTRUCTIONS TO VISIBILITY.

MAZALL-240700-
EASTERN MASSACHUSETTS

CITY           SKY/WX    TMP DP  RH WIND       PRES   REMARKS
BOSTON         PTCLDY    62  61  96 CALM      30.02F
6HR MIN TEMP:  60; 6HR MAX TEMP:  63;

BEVERLY        CLEAR     59  59 100 CALM      30.01F FOG
LAWRENCE       CLEAR     65  61  87 S5        30.04F
BEDFORD        CLEAR     60  57  89 CALM      30.02S
BLUE HILL        N/A     67  59  75 NW7       30.02F
NORWOOD        FOG       57  56  96 CALM      30.02F VSB 3/4
MARSHFIELD     FOG       57  57 100 CALM      30.02S VSB 1/2
PLYMOUTH       FOG       58  56  93 CALM      30.02F VSB 1/2
TAUNTON        FOG       61  60  97 CALM      30.02S VSB 1/2
NEW BEDFORD    CLOUDY    60  59  96 CALM      30.01F FOG
$$

MAZALL-240700-
CAPE COD AND THE ISLANDS

CITY           SKY/WX    TMP DP  RH WIND       PRES   REMARKS
FALMOUTH       FOG       59  59 100 CALM      30.03R VSB 1/4
HYANNIS        FOG       62  62 100 N6        30.00S VSB 1/4
CHATHAM        FOG       63  63 100 VRB5      30.01F VSB 1/4
PROVINCETOWN   FOG       59  58  96 NW5       30.03S VSB 1/4
NANTUCKET      FOG       62  62 100 N14       29.99S VSB 1/2
MARTHAS VNYRD  FOG       64  62  93 N7        30.01S VSB 1/4
$$

MAZALL-240700-
CENTRAL AND WESTERN MASSACHUSETTS

CITY           SKY/WX    TMP DP  RH WIND       PRES   REMARKS
WORCESTER      CLEAR     66  55  67 NW7       30.06F
6HR MIN TEMP:  66; 6HR MAX TEMP:  70;

FITCHBURG      CLEAR     63  59  87 N3        30.05S
ORANGE         CLEAR     58  58 100 CALM      30.07S
SPRINGFIELD    CLEAR     59  56  91 CALM      30.04S
WESTFIELD      CLEAR     62  59  90 N3        30.05S
NORTH ADAMS    CLEAR     57  55  93 CALM      30.10F
PITTSFIELD     CLEAR     58  56  93 CALM      30.09F
$$

RIZALL-240700-
RHODE ISLAND

CITY           SKY/WX    TMP DP  RH WIND       PRES   REMARKS
PROVIDENCE     CLEAR     63  62  97 CALM      30.03F
6HR MIN TEMP:  63; 6HR MAX TEMP:  69;

NEWPORT        CLEAR     61  61 100 N5        30.02S FOG
BLOCK ISLAND   PTCLDY    63  62  97 NW6       30.02F
SMITHFIELD     CLEAR     58  58 100 CALM      30.03F
WESTERLY       CLEAR     62  60  93 CALM      30.03F
$$

CTZALL-240700-
CONNECTICUT

CITY           SKY/WX    TMP DP  RH WIND       PRES   REMARKS
BRADLEY INTL   CLEAR     63  59  87 CALM      30.04F
6HR MIN TEMP:  62; 6HR MAX TEMP:  73;

HARTFORD       CLEAR     63  61  93 CALM      30.04S
BRIDGEPORT     CLEAR     67  60  78 CALM      30.03F
DANBURY        CLEAR     61  58  90 CALM      30.07F
GROTON         CLEAR     62  61  96 CALM      30.01F FOG
NEW HAVEN      CLEAR     61  58  90 CALM      30.04S
CHESTER        FAIR      63  63 100 CALM      30.04S
MERIDEN        CLEAR     58  57  97 CALM      30.04S
WILLIMANTIC    CLEAR     61  59  93 CALM      30.04F
OXFORD         CLEAR     64  57  78 NW3       30.07S
$$

MEZ002-015-021-024-NHZ003-005-008-011-012-014-VTZ005-008-240700-
NORTHERN NEW ENGLAND

CITY           SKY/WX    TMP DP  RH WIND       PRES   REMARKS
PORTLAND ME    CLEAR     61  58  90 CALM      30.02F
6HR MIN TEMP:  61; 6HR MAX TEMP:  67;

BANGOR ME      CLEAR     61  57  87 CALM      30.01F
CONCORD NH     CLEAR     61  59  93 CALM      30.05S
MANCHESTER NH  CLEAR     66  62  87 CALM      30.02F
NASHUA NH      CLEAR     62  60  93 CALM      30.04S
PORTSMOUTH NH  CLEAR     61  60  96 CALM      30.01S
JAFFREY NH     CLEAR     59  59 100 CALM      30.09S
KEENE NH       CLEAR     58  57  97 CALM      30.08S
BURLINGTON VT  CLEAR     64  61  90 CALM      30.07S
MT. WASHINGTON CLEAR     57  50  77 W5          N/A
$$

NYZ052-076-240700-
EASTERN NEW YORK

CITY           SKY/WX    TMP DP  RH WIND       PRES   REMARKS
ALBANY         CLEAR     63  59  87 CALM      30.07F
6HR MIN TEMP:  63; 6HR MAX TEMP:  72;

NEW YORK CITY  CLEAR     73  58  59 NE3       30.03S
6HR MIN TEMP:  73; 6HR MAX TEMP:  81;

$$

ANZALL-240700-
MARINE OBSERVATIONS

STATION/POSITION TIME  TEMP    WIND        PRES    VSBY  WAVE
                       AIR SEA DIR/SP/G                  HT/PER
                 (UTC) (F)     (DEG/KT/KT) (MB)    (MI)  (FT/S)
BOSTON BUOY      0450   59 61  280/  2/  4 1016.5          3/ 7
BUZZARDS BAY     0500   62     340/  8/  8 1016.9S
NANTUCKET SOUND  0450   62 61  350/  4/  6 1016.1          1/13
MASS BAY-STELLWA 0504   59 60  220/  4/  4 1015.9F         3/ 8
ISLE OF SHOALS   0500   64     230/  7/  8 1016.3F
S OF BLOCK IS    NOT AVBL
$$

......................KEY.........................
  SKY/WX - SKY CONDITION/PRESENT WEATHER
  TMP    - TEMPERATURE IN FAHRENHEIT
  DWPT   - DEWPOINT IN FAHRENHEIT
  RH     - RELATIVE HUMIDITY IN PERCENT
  WIND   - DIRECTION AND SPEED IN MPH
  PRES   - MEAN SEA LEVEL PRESSURE IN INCHES OF HG
  WCI    - WIND CHILL INDEX
  VSB    - VISIBILITY IN MILES
  HX     - HEAT INDEX
  TC     - TEMPERATURE IN CELSIUS
  VRB    - VARIABLE WIND DIRECTION
  N/A    - NOT AVAILABLE




USA.gov is the U.S. government's official web portal to all federal, state and local government web resources and services.